Regional Weather Roundup
Issued by NWS Newport/Morehead, NC

Current Version | Previous Version | Graphics & Text | Print | Product List | Glossary On
Versions: 1 2 3 4 5 6 7 8 9 10 11 12 13 14 15 16 17 18 19 20 21 22 23 24 25 26 27 28 29 30 31 32 33 34 35 36 37 38 39 40 41 42 43 44 45 46 47 48 49 50
000 ASUS42 KMHX 251925 RWRMHX WEATHER ROUNDUP FOR EASTERN NORTH CAROLINA NATIONAL WEATHER SERVICE NEWPORT/MOREHEAD CITY NC 300 PM EDT THU MAY 25 2017 NOTE: "FAIR" INDICATES FEW OR NO CLOUDS BELOW 12,000 FEET WITH NO SIGNIFICANT WEATHER AND/OR OBSTRUCTIONS TO VISIBILITY NCZ015>017-031-032-045>047-102-103-252000- NORTH COAST CITY SKY/WX TMP DP RH WIND PRES REMARKS EDENTON PTSUNNY 79 57 47 SW14G20 29.52F ELIZABETH CITY PTSUNNY 78 62 57 SW17G26 29.51F KITTY HAWK PTCLDY 79 58 48 SW5 29.50F MANTEO PTSUNNY 78 61 56 SW22G28 29.51F $$ NCZ045>047-081-094-103-104-252000- CENTRAL COAST CITY SKY/WX TMP DP RH WIND PRES REMARKS FRISCO NOT AVBL $$ NCZ095-097-098-100-101-252000- SOUTHERN COAST CITY SKY/WX TMP DP RH WIND PRES REMARKS BEAUFORT SUNNY 77 62 59 SW29G40 29.60F CEDAR ISLAND NOT AVBL JACKSONVILLE MOSUNNY 71 62 73 SW10G20 29.59R PINEY ISLAND CLEAR N/A N/A N/A SW28G43 29.56F WILMINGTON LGT RAIN 66 59 78 SW16G31 29.63R $$ NCZ011>013-027>030-043-044-078>080-089-090>093-098-252000- COASTAL PLAIN CITY SKY/WX TMP DP RH WIND PRES REMARKS AHOSKIE N/A 76 56 49 S8G18 29.50F CLINTON SUNNY 76 55 47 W16G26 29.59S ELIZABETHTOWN N/A 74 54 49 SW12G29 29.62R GOLDSBORO MOSUNNY 78 51 39 SW24G31 29.54F GREENVILLE PTSUNNY 72 54 53 S17G30 29.57S HAVELOCK PTSUNNY 77 55 46 SW23G37 29.58F KENANSVILLE CLOUDY 73 52 46 W13G21 29.58R KINSTON CLOUDY 72 61 68 S10 29.56F NEW BERN MOSUNNY 73 57 57 S16G24 29.59R RICHLANDS MOSUNNY 78 57 48 SW16G24 29.58F ROCKY MOUNT MOSUNNY 76 56 49 SW14G26 29.53F WASHINGTON MOSUNNY 75 55 48 SW12G24 29.53F WHITEVILLE MOSUNNY 69 54 57 SW14G21 29.65R $$ AMZ130-135-150-152-154-156-158-170-250-252-270-ANZ085-086-088-633-658-670-252000- MARINE OBSERVATIONS STATION/POSITION TIME TEMP WIND PRES WAVE SWELL AIR SEA DIR/SP/G HT/PER HT/PER (UTC) (F) (DEG/KT/KT) (MB) (FT/S) (FT/S) CHESAPEAKE LIGHT NOT AVBL 64 E VA BEACH 1850 69 66 190/ 16/ 19 1000.7 6/ 7 DUCK 1900 78 63 220/ 15/ 21 998.5 2 E DUCK 1900 64 N/A 3/ 7 OREGON INLET 1900 74 72 180/ 28/ 32 999.9 13E OREGON INLT 1848 66 N/A 7/ 8 3/15 HATTERAS CG 1900 76 74 220/ 18/ 29 1001.9 DIAMOND BUOY 1850 76 78 230/ 27/ 31 1001.9 9/ 9 7/ 9 CAPE LOOKOUT 1900 75 220/ 21/ 28 1002.3 BEAUFORT LAB 1900 75 73 210/ 17/ 22 1001.6 30 SE NEW RVR IN 1908 74 75 240/ 25/ 35 1002.9 30 SE NEW RVR IN 1913 75 N/A 10/ 8 2/11 27 SE WRIGHTSVLE 1908 73 75 200/ 23/ 31 1001.8 5 SE WRIGHTSVLE 1908 73 74 210/ 17/ 33 1003.1 225 S CAPE HAT 1850 71 76 200/ 25/ 33 1008.8 11/ 8 41 SE CHARLESTON 1910 72 75 250/ 21/ 29 1006.8 $$

USA.gov is the U.S. government's official web portal to all federal, state and local government web resources and services.